Year,Month,Day,Hour,Minute,Value (Times are PST for windspeed in km/hr)
2009,07,14,00,00,0.00
2009,07,14,00,01,0.00
2009,07,14,00,02,0.00
2009,07,14,00,03,0.00
2009,07,14,00,04,0.00
2009,07,14,00,05,0.00
2009,07,14,00,06,0.00
2009,07,14,00,07,0.00
2009,07,14,00,08,0.00
2009,07,14,00,09,0.00
2009,07,14,00,10,0.00
2009,07,14,00,11,0.00
2009,07,14,00,12,0.00
2009,07,14,00,13,0.00
2009,07,14,00,14,0.00
2009,07,14,00,15,0.00
2009,07,14,00,16,0.00
2009,07,14,00,17,0.00
2009,07,14,00,18,0.00
2009,07,14,00,19,0.00
2009,07,14,00,20,0.00
2009,07,14,00,21,0.00
2009,07,14,00,22,0.00
2009,07,14,00,23,0.00
2009,07,14,00,24,0.00
2009,07,14,00,25,0.00
2009,07,14,00,26,0.00
2009,07,14,00,27,0.00
2009,07,14,00,28,0.00
2009,07,14,00,29,0.00
2009,07,14,00,30,0.00
2009,07,14,00,31,0.00
2009,07,14,00,32,0.00
2009,07,14,00,33,0.00
2009,07,14,00,34,0.00
2009,07,14,00,35,0.00
2009,07,14,00,36,0.00
2009,07,14,00,37,0.00
2009,07,14,00,38,0.00
2009,07,14,00,39,0.00
2009,07,14,00,40,0.00
2009,07,14,00,41,0.00
2009,07,14,00,42,0.00
2009,07,14,00,43,0.00
2009,07,14,00,44,0.00
2009,07,14,00,45,0.00
2009,07,14,00,46,0.00
2009,07,14,00,47,0.00
2009,07,14,00,48,0.00
2009,07,14,00,49,0.00
2009,07,14,00,50,0.00
2009,07,14,00,51,0.00
2009,07,14,00,52,0.00
2009,07,14,00,53,0.00
2009,07,14,00,54,0.00
2009,07,14,00,55,0.00
2009,07,14,00,56,0.00
2009,07,14,00,57,0.00
2009,07,14,00,58,0.00
2009,07,14,00,59,0.00
2009,07,14,01,00,0.00
2009,07,14,01,01,0.00
2009,07,14,01,02,0.00
2009,07,14,01,03,0.00
2009,07,14,01,04,0.00
2009,07,14,01,05,0.00
2009,07,14,01,06,0.00
2009,07,14,01,07,0.00
2009,07,14,01,08,0.00
2009,07,14,01,09,0.00
2009,07,14,01,10,0.00
2009,07,14,01,11,0.00
2009,07,14,01,12,0.00
2009,07,14,01,13,0.00
2009,07,14,01,14,0.00
2009,07,14,01,15,0.00
2009,07,14,01,16,0.00
2009,07,14,01,17,0.00
2009,07,14,01,18,0.00
2009,07,14,01,19,0.00
2009,07,14,01,20,0.00
2009,07,14,01,21,0.00
2009,07,14,01,22,3.70
2009,07,14,01,23,4.40
2009,07,14,01,24,4.00
2009,07,14,01,25,3.60
2009,07,14,01,26,3.50
2009,07,14,01,27,4.30
2009,07,14,01,28,4.50
2009,07,14,01,29,5.00
2009,07,14,01,30,5.90
2009,07,14,01,31,4.90
2009,07,14,01,32,5.40
2009,07,14,01,33,5.70
2009,07,14,01,34,6.80
2009,07,14,01,35,6.20
2009,07,14,01,36,6.00
2009,07,14,01,37,6.00
2009,07,14,01,38,5.10
2009,07,14,01,39,5.10
2009,07,14,01,40,5.70
2009,07,14,01,41,4.90
2009,07,14,01,42,4.00
2009,07,14,01,43,1.40
2009,07,14,01,44,2.60
2009,07,14,01,45,0.80
2009,07,14,01,46,0.70
2009,07,14,01,47,0.00
2009,07,14,01,48,0.00
2009,07,14,01,49,0.00
2009,07,14,01,50,0.00
2009,07,14,01,51,0.10
2009,07,14,01,52,1.20
2009,07,14,01,53,0.10
2009,07,14,01,54,0.00
2009,07,14,01,55,0.00
2009,07,14,01,56,0.00
2009,07,14,01,57,0.00
2009,07,14,01,58,0.00
2009,07,14,01,59,0.00
2009,07,14,02,00,0.00
2009,07,14,02,01,0.00
2009,07,14,02,02,0.00
2009,07,14,02,03,0.50
2009,07,14,02,04,0.80
2009,07,14,02,05,0.10
2009,07,14,02,06,1.70
2009,07,14,02,07,0.60
2009,07,14,02,08,2.10
2009,07,14,02,09,0.90
2009,07,14,02,10,2.70
2009,07,14,02,11,3.70
2009,07,14,02,12,3.20
2009,07,14,02,13,2.30
2009,07,14,02,14,0.00
2009,07,14,02,15,0.00
2009,07,14,02,16,0.00
2009,07,14,02,17,0.00
2009,07,14,02,18,0.00
2009,07,14,02,19,0.00
2009,07,14,02,20,0.00
2009,07,14,02,21,0.00
2009,07,14,02,22,0.00
2009,07,14,02,23,0.00
2009,07,14,02,24,0.00
2009,07,14,02,25,1.00
2009,07,14,02,26,0.00
2009,07,14,02,27,0.00
2009,07,14,02,28,0.00
2009,07,14,02,29,0.00
2009,07,14,02,30,0.00
2009,07,14,02,31,0.00
2009,07,14,02,32,0.00
2009,07,14,02,33,0.00
2009,07,14,02,34,0.00
2009,07,14,02,35,0.00
2009,07,14,02,36,0.00
2009,07,14,02,37,0.00
2009,07,14,02,38,0.00
2009,07,14,02,39,2.00
2009,07,14,02,40,1.20
2009,07,14,02,41,0.00
2009,07,14,02,42,0.00
2009,07,14,02,43,0.00
2009,07,14,02,44,0.00
2009,07,14,02,45,0.00
2009,07,14,02,46,0.00
2009,07,14,02,47,0.00
2009,07,14,02,48,0.00
2009,07,14,02,49,0.00
2009,07,14,02,50,0.00
2009,07,14,02,51,0.00
2009,07,14,02,52,0.00
2009,07,14,02,53,0.00
2009,07,14,02,54,0.00
2009,07,14,02,55,0.10
2009,07,14,02,56,0.00
2009,07,14,02,57,0.00
2009,07,14,02,58,0.00
2009,07,14,02,59,0.00
2009,07,14,03,00,0.20
2009,07,14,03,01,0.00
2009,07,14,03,02,0.10
2009,07,14,03,03,0.00
2009,07,14,03,04,0.00
2009,07,14,03,05,1.40
2009,07,14,03,06,0.10
2009,07,14,03,07,0.00
2009,07,14,03,08,0.00
2009,07,14,03,09,0.20
2009,07,14,03,10,0.00
2009,07,14,03,11,0.00
2009,07,14,03,12,0.00
2009,07,14,03,13,0.00
2009,07,14,03,14,0.20
2009,07,14,03,15,1.60
2009,07,14,03,16,0.20
2009,07,14,03,17,0.00
2009,07,14,03,18,0.30
2009,07,14,03,19,0.00
2009,07,14,03,20,0.20
2009,07,14,03,21,0.00
2009,07,14,03,22,0.00
2009,07,14,03,23,0.00
2009,07,14,03,24,0.00
2009,07,14,03,25,0.00
2009,07,14,03,26,0.10
2009,07,14,03,27,0.40
2009,07,14,03,28,0.00
2009,07,14,03,29,0.20
2009,07,14,03,30,0.80
2009,07,14,03,31,1.00
2009,07,14,03,32,0.00
2009,07,14,03,33,0.00
2009,07,14,03,34,0.00
2009,07,14,03,35,0.30
2009,07,14,03,36,0.90
2009,07,14,03,37,0.00
2009,07,14,03,38,1.40
2009,07,14,03,39,2.40
2009,07,14,03,40,3.20
2009,07,14,03,41,3.60
2009,07,14,03,42,2.00
2009,07,14,03,43,0.90
2009,07,14,03,44,0.00
2009,07,14,03,45,0.20
2009,07,14,03,46,0.80
2009,07,14,03,47,3.80
2009,07,14,03,48,2.00
2009,07,14,03,49,0.00
2009,07,14,03,50,0.00
2009,07,14,03,51,0.00
2009,07,14,03,52,0.00
2009,07,14,03,53,0.20
2009,07,14,03,54,2.60
2009,07,14,03,55,0.90
2009,07,14,03,56,0.00
2009,07,14,03,57,0.00
2009,07,14,03,58,0.00
2009,07,14,03,59,0.00
2009,07,14,04,00,0.00
2009,07,14,04,01,2.30
2009,07,14,04,02,2.20
2009,07,14,04,03,1.30
2009,07,14,04,04,2.50
2009,07,14,04,05,3.00
2009,07,14,04,06,0.20
2009,07,14,04,07,0.00
2009,07,14,04,08,0.00
2009,07,14,04,09,0.00
2009,07,14,04,10,0.00
2009,07,14,04,11,0.00
2009,07,14,04,12,0.00
2009,07,14,04,13,0.00
2009,07,14,04,14,0.00
2009,07,14,04,15,0.00
2009,07,14,04,16,0.00
2009,07,14,04,17,0.00
2009,07,14,04,18,0.00
2009,07,14,04,19,0.00
2009,07,14,04,20,0.00
2009,07,14,04,21,0.00
2009,07,14,04,22,0.00
2009,07,14,04,23,0.00
2009,07,14,04,24,0.00
2009,07,14,04,25,0.00
2009,07,14,04,26,0.00
2009,07,14,04,27,0.00
2009,07,14,04,28,0.00
2009,07,14,04,29,0.00
2009,07,14,04,30,0.00
2009,07,14,04,31,0.00
2009,07,14,04,32,0.00
2009,07,14,04,33,0.00
2009,07,14,04,34,0.00
2009,07,14,04,35,0.00
2009,07,14,04,36,0.00
2009,07,14,04,37,0.00
2009,07,14,04,38,0.00
2009,07,14,04,39,0.00
2009,07,14,04,40,0.00
2009,07,14,04,41,0.00
2009,07,14,04,42,0.00
2009,07,14,04,43,0.00
2009,07,14,04,44,0.00
2009,07,14,04,45,0.00
2009,07,14,04,46,0.00
2009,07,14,04,47,0.00
2009,07,14,04,48,0.00
2009,07,14,04,49,0.00
2009,07,14,04,50,0.00
2009,07,14,04,51,0.00
2009,07,14,04,52,0.00
2009,07,14,04,53,0.00
2009,07,14,04,54,0.00
2009,07,14,04,55,0.00
2009,07,14,04,56,0.00
2009,07,14,04,57,0.00
2009,07,14,04,58,0.00
2009,07,14,04,59,0.00
2009,07,14,05,00,0.00
2009,07,14,05,01,0.00
2009,07,14,05,02,0.00
2009,07,14,05,03,0.00
2009,07,14,05,04,0.00
2009,07,14,05,05,0.00
2009,07,14,05,06,0.00
2009,07,14,05,07,0.00
2009,07,14,05,08,0.10
2009,07,14,05,09,0.00
2009,07,14,05,10,0.00
2009,07,14,05,11,0.00
2009,07,14,05,12,0.00
2009,07,14,05,13,0.00
2009,07,14,05,14,2.90
2009,07,14,05,15,3.30
2009,07,14,05,16,0.50
2009,07,14,05,17,0.00
2009,07,14,05,18,0.00
2009,07,14,05,19,0.10
2009,07,14,05,20,0.00
2009,07,14,05,21,0.00
2009,07,14,05,22,0.10
2009,07,14,05,23,1.40
2009,07,14,05,24,0.90
2009,07,14,05,25,2.10
2009,07,14,05,26,0.60
2009,07,14,05,27,0.00
2009,07,14,05,28,0.00
2009,07,14,05,29,0.00
2009,07,14,05,30,0.00
2009,07,14,05,31,0.00
2009,07,14,05,32,0.00
2009,07,14,05,33,0.00
2009,07,14,05,34,0.00
2009,07,14,05,35,0.40
2009,07,14,05,36,0.50
2009,07,14,05,37,0.20
2009,07,14,05,38,0.00
2009,07,14,05,39,0.00
2009,07,14,05,40,0.00
2009,07,14,05,41,0.00
2009,07,14,05,42,0.00
2009,07,14,05,43,0.00
2009,07,14,05,44,0.00
2009,07,14,05,45,0.00
2009,07,14,05,46,2.00
2009,07,14,05,47,3.00
2009,07,14,05,48,3.40
2009,07,14,05,49,2.40
2009,07,14,05,50,1.50
2009,07,14,05,51,3.00
2009,07,14,05,52,0.00
2009,07,14,05,53,0.00
2009,07,14,05,54,0.20
2009,07,14,05,55,0.00
2009,07,14,05,56,0.00
2009,07,14,05,57,0.00
2009,07,14,05,58,0.00
2009,07,14,05,59,0.00
2009,07,14,06,00,0.00
2009,07,14,06,01,0.70
2009,07,14,06,02,0.00
2009,07,14,06,03,0.00
2009,07,14,06,04,0.00
2009,07,14,06,05,0.00
2009,07,14,06,06,0.00
2009,07,14,06,07,0.00
2009,07,14,06,08,0.00
2009,07,14,06,09,0.00
2009,07,14,06,10,0.00
2009,07,14,06,11,0.00
2009,07,14,06,12,0.00
2009,07,14,06,13,0.00
2009,07,14,06,14,0.00
2009,07,14,06,15,0.00
2009,07,14,06,16,0.00
2009,07,14,06,17,0.00
2009,07,14,06,18,0.00
2009,07,14,06,19,0.00
2009,07,14,06,20,0.00
2009,07,14,06,21,0.00
2009,07,14,06,22,0.00
2009,07,14,06,23,0.00
2009,07,14,06,24,0.00
2009,07,14,06,25,0.00
2009,07,14,06,26,0.00
2009,07,14,06,27,0.00
2009,07,14,06,28,0.00
2009,07,14,06,29,0.00
2009,07,14,06,30,0.00
2009,07,14,06,31,0.00
2009,07,14,06,32,0.00
2009,07,14,06,33,0.00
2009,07,14,06,34,0.00
2009,07,14,06,35,0.00
2009,07,14,06,36,0.00
2009,07,14,06,37,0.00
2009,07,14,06,38,0.00
2009,07,14,06,39,0.00
2009,07,14,06,40,0.00
2009,07,14,06,41,0.00
2009,07,14,06,42,0.00
2009,07,14,06,43,0.00
2009,07,14,06,44,0.00
2009,07,14,06,45,0.00
2009,07,14,06,46,0.00
2009,07,14,06,47,0.00
2009,07,14,06,48,1.40
2009,07,14,06,49,1.70
2009,07,14,06,50,0.00
2009,07,14,06,51,0.60
2009,07,14,06,52,2.90
2009,07,14,06,53,3.20
2009,07,14,06,54,2.60
2009,07,14,06,55,0.00
2009,07,14,06,56,0.40
2009,07,14,06,57,0.00
2009,07,14,06,58,3.20
2009,07,14,06,59,3.90
2009,07,14,07,00,2.50
2009,07,14,07,01,2.10
2009,07,14,07,02,4.50
2009,07,14,07,03,3.70
2009,07,14,07,04,0.40
2009,07,14,07,05,4.50
2009,07,14,07,06,6.30
2009,07,14,07,07,4.90
2009,07,14,07,08,5.30
2009,07,14,07,09,3.70
2009,07,14,07,10,4.00
2009,07,14,07,11,3.20
2009,07,14,07,12,3.40
2009,07,14,07,13,2.70
2009,07,14,07,14,0.20
2009,07,14,07,15,0.40
2009,07,14,07,16,3.90
2009,07,14,07,17,0.00
2009,07,14,07,18,1.10
2009,07,14,07,19,2.00
2009,07,14,07,20,5.00
2009,07,14,07,21,3.60
2009,07,14,07,22,1.10
2009,07,14,07,23,6.20
2009,07,14,07,24,0.40
2009,07,14,07,25,0.00
2009,07,14,07,26,2.20
2009,07,14,07,27,3.70
2009,07,14,07,28,3.70
2009,07,14,07,29,1.70
2009,07,14,07,30,0.10
2009,07,14,07,31,2.40
2009,07,14,07,32,1.30
2009,07,14,07,33,5.70
2009,07,14,07,34,4.50
2009,07,14,07,35,0.50
2009,07,14,07,36,3.00
2009,07,14,07,37,3.90
2009,07,14,07,38,5.60
2009,07,14,07,39,5.00
2009,07,14,07,40,3.90
2009,07,14,07,41,4.30
2009,07,14,07,42,2.10
2009,07,14,07,43,3.40
2009,07,14,07,44,0.00
2009,07,14,07,45,0.70
2009,07,14,07,46,6.10
2009,07,14,07,47,4.90
2009,07,14,07,48,2.20
2009,07,14,07,49,4.60
2009,07,14,07,50,0.40
2009,07,14,07,51,0.30
2009,07,14,07,52,0.00
2009,07,14,07,53,0.00
2009,07,14,07,54,0.00
2009,07,14,07,55,3.10
2009,07,14,07,56,3.20
2009,07,14,07,57,1.20
2009,07,14,07,58,0.00
2009,07,14,07,59,3.30
2009,07,14,08,00,2.10
2009,07,14,08,01,0.70
2009,07,14,08,02,0.00
2009,07,14,08,03,0.00
2009,07,14,08,04,0.00
2009,07,14,08,05,2.60
2009,07,14,08,06,3.90
2009,07,14,08,07,4.00
2009,07,14,08,08,4.60
2009,07,14,08,09,4.00
2009,07,14,08,10,6.30
2009,07,14,08,11,4.20
2009,07,14,08,12,3.40
2009,07,14,08,13,5.60
2009,07,14,08,14,4.70
2009,07,14,08,15,1.20
2009,07,14,08,16,3.00
2009,07,14,08,17,4.20
2009,07,14,08,18,4.80
2009,07,14,08,19,4.60
2009,07,14,08,20,5.10
2009,07,14,08,21,5.10
2009,07,14,08,22,1.70
2009,07,14,08,23,3.90
2009,07,14,08,24,7.10
2009,07,14,08,25,6.70
2009,07,14,08,26,3.90
2009,07,14,08,27,5.80
2009,07,14,08,28,5.30
2009,07,14,08,29,3.50
2009,07,14,08,30,0.10
2009,07,14,08,31,0.00
2009,07,14,08,32,3.90
2009,07,14,08,33,5.00
2009,07,14,08,34,5.70
2009,07,14,08,35,3.30
2009,07,14,08,36,0.40
2009,07,14,08,37,3.30
2009,07,14,08,38,4.30
2009,07,14,08,39,2.70
2009,07,14,08,40,7.10
2009,07,14,08,41,2.00
2009,07,14,08,42,3.50
2009,07,14,08,43,4.50
2009,07,14,08,44,4.60
2009,07,14,08,45,3.10
2009,07,14,08,46,4.70
2009,07,14,08,47,4.20
2009,07,14,08,48,5.00
2009,07,14,08,49,4.90
2009,07,14,08,50,6.00
2009,07,14,08,51,5.00
2009,07,14,08,52,4.90
2009,07,14,08,53,5.60
2009,07,14,08,54,5.90
2009,07,14,08,55,4.30
2009,07,14,08,56,5.10
2009,07,14,08,57,4.30
2009,07,14,08,58,6.40
2009,07,14,08,59,8.80
2009,07,14,09,00,6.50
2009,07,14,09,01,5.50
2009,07,14,09,02,5.80
2009,07,14,09,03,5.70
2009,07,14,09,04,6.20
2009,07,14,09,05,5.50
2009,07,14,09,06,4.70
2009,07,14,09,07,7.20
2009,07,14,09,08,5.80
2009,07,14,09,09,5.00
2009,07,14,09,10,4.30
2009,07,14,09,11,5.80
2009,07,14,09,12,6.10
2009,07,14,09,13,4.80
2009,07,14,09,14,6.50
2009,07,14,09,15,5.50
2009,07,14,09,16,5.30
2009,07,14,09,17,6.10
2009,07,14,09,18,8.10
2009,07,14,09,19,7.00
2009,07,14,09,20,6.70
2009,07,14,09,21,5.40
2009,07,14,09,22,7.00
2009,07,14,09,23,6.20
2009,07,14,09,24,4.90
2009,07,14,09,25,3.60
2009,07,14,09,26,5.60
2009,07,14,09,27,4.50
2009,07,14,09,28,4.20
2009,07,14,09,29,5.90
2009,07,14,09,30,3.70
2009,07,14,09,31,3.80
2009,07,14,09,32,3.20
2009,07,14,09,33,4.70
2009,07,14,09,34,5.90
2009,07,14,09,35,4.10
2009,07,14,09,36,6.10
2009,07,14,09,37,1.50
2009,07,14,09,38,0.80
2009,07,14,09,39,1.50
2009,07,14,09,40,2.10
2009,07,14,09,41,3.00
2009,07,14,09,42,3.30
2009,07,14,09,43,4.10
2009,07,14,09,44,3.30
2009,07,14,09,45,3.60
2009,07,14,09,46,0.00
2009,07,14,09,47,0.00
2009,07,14,09,48,0.00
2009,07,14,09,49,0.00
2009,07,14,09,50,2.30
2009,07,14,09,51,2.00
2009,07,14,09,52,0.00
2009,07,14,09,53,3.80
2009,07,14,09,54,3.60
2009,07,14,09,55,4.60
2009,07,14,09,56,2.10
2009,07,14,09,57,0.10
2009,07,14,09,58,0.80
2009,07,14,09,59,8.20
2009,07,14,10,00,2.00
2009,07,14,10,01,0.50
2009,07,14,10,02,5.20
2009,07,14,10,03,7.20
2009,07,14,10,04,5.50
2009,07,14,10,05,4.40
2009,07,14,10,06,4.50
2009,07,14,10,07,7.20
2009,07,14,10,08,6.20
2009,07,14,10,09,5.20
2009,07,14,10,10,3.90
2009,07,14,10,11,7.10
2009,07,14,10,12,2.80
2009,07,14,10,13,4.20
2009,07,14,10,14,5.00
2009,07,14,10,15,3.60
2009,07,14,10,16,5.70
2009,07,14,10,17,4.90
2009,07,14,10,18,5.20
2009,07,14,10,19,7.90
2009,07,14,10,20,5.60
2009,07,14,10,21,5.80
2009,07,14,10,22,5.90
2009,07,14,10,23,5.40
2009,07,14,10,24,6.60
2009,07,14,10,25,5.50
2009,07,14,10,26,2.30
2009,07,14,10,27,7.40
2009,07,14,10,28,6.20
2009,07,14,10,29,5.30
2009,07,14,10,30,7.00
2009,07,14,10,31,6.80
2009,07,14,10,32,6.10
2009,07,14,10,33,7.10
2009,07,14,10,34,9.50
2009,07,14,10,35,8.00
2009,07,14,10,36,8.10
2009,07,14,10,37,8.90
2009,07,14,10,38,7.70
2009,07,14,10,39,5.10
2009,07,14,10,40,8.70
2009,07,14,10,41,7.20
2009,07,14,10,42,8.90
2009,07,14,10,43,9.60
2009,07,14,10,44,8.60
2009,07,14,10,45,7.70
2009,07,14,10,46,7.50
2009,07,14,10,47,6.50
2009,07,14,10,48,5.90
2009,07,14,10,49,7.50
2009,07,14,10,50,8.10
2009,07,14,10,51,5.20
2009,07,14,10,52,6.30
2009,07,14,10,53,6.70
2009,07,14,10,54,9.00
2009,07,14,10,55,5.80
2009,07,14,10,56,9.00
2009,07,14,10,57,9.00
2009,07,14,10,58,8.80
2009,07,14,10,59,7.80
2009,07,14,11,00,7.50
2009,07,14,11,01,6.30
2009,07,14,11,02,9.40
2009,07,14,11,03,5.40
2009,07,14,11,04,8.20
2009,07,14,11,05,8.00
2009,07,14,11,06,7.00
2009,07,14,11,07,4.30
2009,07,14,11,08,6.30
2009,07,14,11,09,9.10
2009,07,14,11,10,4.80
2009,07,14,11,11,8.40
2009,07,14,11,12,4.30
2009,07,14,11,13,7.80
2009,07,14,11,14,2.00
2009,07,14,11,15,4.80
2009,07,14,11,16,6.60
2009,07,14,11,17,11.20
2009,07,14,11,18,8.40
2009,07,14,11,19,8.50
2009,07,14,11,20,8.50
2009,07,14,11,21,6.90
2009,07,14,11,22,5.60
2009,07,14,11,23,6.50
2009,07,14,11,24,2.50
2009,07,14,11,25,6.20
2009,07,14,11,26,6.60
2009,07,14,11,27,4.00
2009,07,14,11,28,6.10
2009,07,14,11,29,5.20
2009,07,14,11,30,5.00
2009,07,14,11,31,7.40
2009,07,14,11,32,8.00
2009,07,14,11,33,4.80
2009,07,14,11,34,3.40
2009,07,14,11,35,6.80
2009,07,14,11,36,6.50
2009,07,14,11,37,5.80
2009,07,14,11,38,7.40
2009,07,14,11,39,8.90
2009,07,14,11,40,5.90
2009,07,14,11,41,7.00
2009,07,14,11,42,6.70
2009,07,14,11,43,8.20
2009,07,14,11,44,4.30
2009,07,14,11,45,8.00
2009,07,14,11,46,7.10
2009,07,14,11,47,4.50
2009,07,14,11,48,5.60
2009,07,14,11,49,6.30
2009,07,14,11,50,8.20
2009,07,14,11,51,6.70
2009,07,14,11,52,10.60
2009,07,14,11,53,10.00
2009,07,14,11,54,7.30
2009,07,14,11,55,10.70
2009,07,14,11,56,8.50
2009,07,14,11,57,7.20
2009,07,14,11,58,7.80
2009,07,14,11,59,8.90
2009,07,14,12,00,8.40
2009,07,14,12,01,8.40
2009,07,14,12,02,6.70
2009,07,14,12,03,6.60
2009,07,14,12,04,9.60
2009,07,14,12,05,11.60
2009,07,14,12,06,7.80
2009,07,14,12,07,7.00
2009,07,14,12,08,4.80
2009,07,14,12,09,6.70
2009,07,14,12,10,6.70
2009,07,14,12,11,8.40
2009,07,14,12,12,10.40
2009,07,14,12,13,7.80
2009,07,14,12,14,5.10
2009,07,14,12,15,5.60
2009,07,14,12,16,6.00
2009,07,14,12,17,9.70
2009,07,14,12,18,7.60
2009,07,14,12,19,5.50
2009,07,14,12,20,7.80
2009,07,14,12,21,7.50
2009,07,14,12,22,7.70
2009,07,14,12,23,5.10
2009,07,14,12,24,8.10
2009,07,14,12,25,6.80
2009,07,14,12,26,8.40
2009,07,14,12,27,9.10
2009,07,14,12,28,9.90
2009,07,14,12,29,8.90
2009,07,14,12,30,5.50
2009,07,14,12,31,10.50
2009,07,14,12,32,10.50
2009,07,14,12,33,11.20
2009,07,14,12,34,11.40
2009,07,14,12,35,6.90
2009,07,14,12,36,8.10
2009,07,14,12,37,6.50
2009,07,14,12,38,8.90
2009,07,14,12,39,6.60
2009,07,14,12,40,8.80
2009,07,14,12,41,5.60
2009,07,14,12,42,12.90
2009,07,14,12,43,9.20
2009,07,14,12,44,7.70
2009,07,14,12,45,9.80
2009,07,14,12,46,10.30
2009,07,14,12,47,10.00
2009,07,14,12,48,7.00
2009,07,14,12,49,6.70
2009,07,14,12,50,5.70
2009,07,14,12,51,9.30
2009,07,14,12,52,9.90
2009,07,14,12,53,10.50
2009,07,14,12,54,9.50
2009,07,14,12,55,10.80
2009,07,14,12,56,10.60
2009,07,14,12,57,8.20
2009,07,14,12,58,9.80
2009,07,14,12,59,10.40
2009,07,14,13,00,7.50
2009,07,14,13,01,10.30
2009,07,14,13,02,7.70
2009,07,14,13,03,10.90
2009,07,14,13,04,9.30
2009,07,14,13,05,9.20
2009,07,14,13,06,5.80
2009,07,14,13,07,5.80
2009,07,14,13,08,7.70
2009,07,14,13,09,9.50
2009,07,14,13,10,7.70
2009,07,14,13,11,10.10
2009,07,14,13,12,9.80
2009,07,14,13,13,6.50
2009,07,14,13,14,7.40
2009,07,14,13,15,5.80
2009,07,14,13,16,8.70
2009,07,14,13,17,7.60
2009,07,14,13,18,9.50
2009,07,14,13,19,4.20
2009,07,14,13,20,6.20
2009,07,14,13,21,6.30
2009,07,14,13,22,10.00
2009,07,14,13,23,9.90
2009,07,14,13,24,6.50
2009,07,14,13,25,7.20
2009,07,14,13,26,5.80
2009,07,14,13,27,8.80
2009,07,14,13,28,7.50
2009,07,14,13,29,6.70
2009,07,14,13,30,5.70
2009,07,14,13,31,6.60
2009,07,14,13,32,7.90
2009,07,14,13,33,7.70
2009,07,14,13,34,8.50
2009,07,14,13,35,8.80
2009,07,14,13,36,6.60
2009,07,14,13,37,9.20
2009,07,14,13,38,8.80
2009,07,14,13,39,7.40
2009,07,14,13,40,8.80
2009,07,14,13,41,8.70
2009,07,14,13,42,8.90
2009,07,14,13,43,6.60
2009,07,14,13,44,6.90
2009,07,14,13,45,9.80
2009,07,14,13,46,9.40
2009,07,14,13,47,8.20
2009,07,14,13,48,7.30
2009,07,14,13,49,7.60
2009,07,14,13,50,8.30
2009,07,14,13,51,5.20
2009,07,14,13,52,5.10
2009,07,14,13,53,12.50
2009,07,14,13,54,9.40
2009,07,14,13,55,5.00
2009,07,14,13,56,6.10
2009,07,14,13,57,6.40
2009,07,14,13,58,7.80
2009,07,14,13,59,8.20
2009,07,14,14,00,9.40
2009,07,14,14,01,8.20
2009,07,14,14,02,4.20
2009,07,14,14,03,7.00
2009,07,14,14,04,7.50
2009,07,14,14,05,7.40
2009,07,14,14,06,6.20
2009,07,14,14,07,10.00
2009,07,14,14,08,6.20
2009,07,14,14,09,5.10
2009,07,14,14,10,4.20
2009,07,14,14,11,9.10
2009,07,14,14,12,8.10
2009,07,14,14,13,6.20
2009,07,14,14,14,4.80
2009,07,14,14,15,7.20
2009,07,14,14,16,6.30
2009,07,14,14,17,7.20
2009,07,14,14,18,6.20
2009,07,14,14,19,6.60
2009,07,14,14,20,8.60
2009,07,14,14,21,6.00
2009,07,14,14,22,8.60
2009,07,14,14,23,9.00
2009,07,14,14,24,9.40
2009,07,14,14,25,6.50
2009,07,14,14,26,9.40
2009,07,14,14,27,8.50
2009,07,14,14,28,6.70
2009,07,14,14,29,4.00
2009,07,14,14,30,3.10
2009,07,14,14,31,7.10
2009,07,14,14,32,7.50
2009,07,14,14,33,0.60
2009,07,14,14,34,6.90
2009,07,14,14,35,5.30
2009,07,14,14,36,6.50
2009,07,14,14,37,4.20
2009,07,14,14,38,6.50
2009,07,14,14,39,8.30
2009,07,14,14,40,6.90
2009,07,14,14,41,7.50
2009,07,14,14,42,7.90
2009,07,14,14,43,5.60
2009,07,14,14,44,5.40
2009,07,14,14,45,8.00
2009,07,14,14,46,6.00
2009,07,14,14,47,5.20
2009,07,14,14,48,5.90
2009,07,14,14,49,3.30
2009,07,14,14,50,2.30
2009,07,14,14,51,4.90
2009,07,14,14,52,7.70
2009,07,14,14,53,10.10
2009,07,14,14,54,7.80
2009,07,14,14,55,7.30
2009,07,14,14,56,9.60
2009,07,14,14,57,9.60
2009,07,14,14,58,8.40
2009,07,14,14,59,6.60
2009,07,14,15,00,7.90
2009,07,14,15,01,7.20
2009,07,14,15,02,8.20
2009,07,14,15,03,8.70
2009,07,14,15,04,7.60
2009,07,14,15,05,6.80
2009,07,14,15,06,5.40
2009,07,14,15,07,5.00
2009,07,14,15,08,2.70
2009,07,14,15,09,9.20
2009,07,14,15,10,5.70
2009,07,14,15,11,6.90
2009,07,14,15,12,6.60
2009,07,14,15,13,9.50
2009,07,14,15,14,6.00
2009,07,14,15,15,6.90
2009,07,14,15,16,5.50
2009,07,14,15,17,8.10
2009,07,14,15,18,6.50
2009,07,14,15,19,5.80
2009,07,14,15,20,6.40
2009,07,14,15,21,8.90
2009,07,14,15,22,7.50
2009,07,14,15,23,7.30
2009,07,14,15,24,6.80
2009,07,14,15,25,6.50
2009,07,14,15,26,5.80
2009,07,14,15,27,8.00
2009,07,14,15,28,6.20
2009,07,14,15,29,6.40
2009,07,14,15,30,7.60
2009,07,14,15,31,6.10
2009,07,14,15,32,7.40
2009,07,14,15,33,7.70
2009,07,14,15,34,6.10
2009,07,14,15,35,7.70
2009,07,14,15,36,7.20
2009,07,14,15,37,7.60
2009,07,14,15,38,8.80
2009,07,14,15,39,7.80
2009,07,14,15,40,5.40
2009,07,14,15,41,5.20
2009,07,14,15,42,5.50
2009,07,14,15,43,8.00
2009,07,14,15,44,7.10
2009,07,14,15,45,5.20
2009,07,14,15,46,7.60
2009,07,14,15,47,5.70
2009,07,14,15,48,4.80
2009,07,14,15,49,8.40
2009,07,14,15,50,3.20
2009,07,14,15,51,5.90
2009,07,14,15,52,7.40
2009,07,14,15,53,6.30
2009,07,14,15,54,7.30
2009,07,14,15,55,6.80
2009,07,14,15,56,6.90
2009,07,14,15,57,9.30
2009,07,14,15,58,9.10
2009,07,14,15,59,9.40
2009,07,14,16,00,6.70
2009,07,14,16,01,6.60
2009,07,14,16,02,5.10
2009,07,14,16,03,4.90
2009,07,14,16,04,6.50
2009,07,14,16,05,7.20
2009,07,14,16,06,7.40
2009,07,14,16,07,8.20
2009,07,14,16,08,5.10
2009,07,14,16,09,9.70
2009,07,14,16,10,7.70
2009,07,14,16,11,7.90
2009,07,14,16,12,5.20
2009,07,14,16,13,8.80
2009,07,14,16,14,9.50
2009,07,14,16,15,8.80
2009,07,14,16,16,7.20
2009,07,14,16,17,8.30
2009,07,14,16,18,10.20
2009,07,14,16,19,6.30
2009,07,14,16,20,9.40
2009,07,14,16,21,8.60
2009,07,14,16,22,9.50
2009,07,14,16,23,7.20
2009,07,14,16,24,8.30
2009,07,14,16,25,9.90
2009,07,14,16,26,7.90
2009,07,14,16,27,8.30
2009,07,14,16,28,8.90
2009,07,14,16,29,5.90
2009,07,14,16,30,8.30
2009,07,14,16,31,7.50
2009,07,14,16,32,8.50
2009,07,14,16,33,7.70
2009,07,14,16,34,7.20
2009,07,14,16,35,7.00
2009,07,14,16,36,7.80
2009,07,14,16,37,7.20
2009,07,14,16,38,7.30
2009,07,14,16,39,5.60
2009,07,14,16,40,5.90
2009,07,14,16,41,4.50
2009,07,14,16,42,6.70
2009,07,14,16,43,7.20
2009,07,14,16,44,9.10
2009,07,14,16,45,6.80
2009,07,14,16,46,8.40
2009,07,14,16,47,6.80
2009,07,14,16,48,7.60
2009,07,14,16,49,5.20
2009,07,14,16,50,7.60
2009,07,14,16,51,2.50
2009,07,14,16,52,5.20
2009,07,14,16,53,5.30
2009,07,14,16,54,5.80
2009,07,14,16,55,6.00
2009,07,14,16,56,5.00
2009,07,14,16,57,1.60
2009,07,14,16,58,4.10
2009,07,14,16,59,3.50
2009,07,14,17,00,4.50
2009,07,14,17,01,5.60
2009,07,14,17,02,7.00
2009,07,14,17,03,7.70
2009,07,14,17,04,4.50
2009,07,14,17,05,7.80
2009,07,14,17,06,7.10
2009,07,14,17,07,5.10
2009,07,14,17,08,5.60
2009,07,14,17,09,5.90
2009,07,14,17,10,6.50
2009,07,14,17,11,4.60
2009,07,14,17,12,5.00
2009,07,14,17,13,6.40
2009,07,14,17,14,5.90
2009,07,14,17,15,8.10
2009,07,14,17,16,7.50
2009,07,14,17,17,7.00
2009,07,14,17,18,1.60
2009,07,14,17,19,6.60
2009,07,14,17,20,5.70
2009,07,14,17,21,4.00
2009,07,14,17,22,4.90
2009,07,14,17,23,5.60
2009,07,14,17,24,6.80
2009,07,14,17,25,7.00
2009,07,14,17,26,5.30
2009,07,14,17,27,1.10
2009,07,14,17,28,4.70
2009,07,14,17,29,4.70
2009,07,14,17,30,3.50
2009,07,14,17,31,0.60
2009,07,14,17,32,5.80
2009,07,14,17,33,1.20
2009,07,14,17,34,4.40
2009,07,14,17,35,2.80
2009,07,14,17,36,4.60
2009,07,14,17,37,7.50
2009,07,14,17,38,8.10
2009,07,14,17,39,7.60
2009,07,14,17,40,7.00
2009,07,14,17,41,8.10
2009,07,14,17,42,5.20
2009,07,14,17,43,5.20
2009,07,14,17,44,5.40
2009,07,14,17,45,6.60
2009,07,14,17,46,6.50
2009,07,14,17,47,4.10
2009,07,14,17,48,6.70
2009,07,14,17,49,7.60
2009,07,14,17,50,6.00
2009,07,14,17,51,7.10
2009,07,14,17,52,6.30
2009,07,14,17,53,4.10
2009,07,14,17,54,6.10
2009,07,14,17,55,6.40
2009,07,14,17,56,6.20
2009,07,14,17,57,4.30
2009,07,14,17,58,2.30
2009,07,14,17,59,4.40
2009,07,14,18,00,2.80
2009,07,14,18,01,5.60
2009,07,14,18,02,4.00
2009,07,14,18,03,1.50
2009,07,14,18,04,6.00
2009,07,14,18,05,6.60